Time,TemperatureF,DewpointF,PressureIn,WindDirection,WindDirectionDegrees,WindSpeedMPH,WindSpeedGustMPH,Humidity,HourlyPrecipIn,Conditions,Clouds,dailyrainin,SoftwareType,DateUTC
2013-05-14 00:01:00,61.6,51.4,29.97,NW,315,2.5,2.5,69,0.00,,,0.00,WUHU216HW,2013-05-14 07:01:00,
2013-05-14 00:06:00,61.2,51.0,29.97,NW,315,1.3,2.5,69,0.00,,,0.00,WUHU216HW,2013-05-14 07:06:00,
2013-05-14 00:11:00,60.8,50.7,29.97,West,270,0.4,2.5,69,0.00,,,0.00,WUHU216HW,2013-05-14 07:11:00,
2013-05-14 00:16:00,60.8,50.7,29.97,West,270,0.0,1.3,69,0.00,,,0.00,WUHU216HW,2013-05-14 07:16:00,
2013-05-14 00:21:00,60.8,50.7,29.96,South,180,0.0,0.4,69,0.00,,,0.00,WUHU216HW,2013-05-14 07:21:00,
2013-05-14 00:26:00,60.8,50.7,29.97,NNW,338,0.7,0.9,69,0.00,,,0.00,WUHU216HW,2013-05-14 07:26:00,
2013-05-14 00:31:00,60.8,50.7,29.96,NNW,338,0.4,1.1,69,0.00,,,0.00,WUHU216HW,2013-05-14 07:31:00,
2013-05-14 00:36:00,60.8,50.7,29.97,NE,45,0.4,1.1,69,0.00,,,0.00,WUHU216HW,2013-05-14 07:36:00,
2013-05-14 00:41:00,60.7,50.5,29.96,NE,45,1.8,1.8,69,0.00,,,0.00,WUHU216HW,2013-05-14 07:41:00,
2013-05-14 00:46:00,60.5,50.3,29.96,SE,135,0.4,1.8,69,0.00,,,0.00,WUHU216HW,2013-05-14 07:46:00,
2013-05-14 00:51:00,60.5,50.3,29.95,SE,135,0.4,1.6,69,0.00,,,0.00,WUHU216HW,2013-05-14 07:51:00,
2013-05-14 00:56:00,60.5,50.3,29.96,South,180,0.4,0.4,69,0.00,,,0.00,WUHU216HW,2013-05-14 07:56:00,
2013-05-14 01:01:00,60.3,50.1,29.96,South,180,0.0,0.4,69,0.00,,,0.00,WUHU216HW,2013-05-14 08:01:00,
2013-05-14 01:06:00,60.3,50.1,29.96,South,180,1.1,1.1,69,0.00,,,0.00,WUHU216HW,2013-05-14 08:06:00,
2013-05-14 01:11:00,60.1,50.0,29.96,South,180,0.0,1.1,69,0.00,,,0.00,WUHU216HW,2013-05-14 08:11:00,
2013-05-14 01:16:00,60.1,50.0,29.96,South,180,0.0,0.0,69,0.00,,,0.00,WUHU216HW,2013-05-14 08:16:00,
2013-05-14 01:21:00,59.9,49.8,29.96,SSW,203,1.8,1.8,69,0.00,,,0.00,WUHU216HW,2013-05-14 08:21:00,
2013-05-14 01:26:00,59.8,49.6,29.96,WNW,293,4.5,4.5,69,0.00,,,0.00,WUHU216HW,2013-05-14 08:26:00,
2013-05-14 01:31:00,59.6,49.9,29.96,WNW,293,3.1,4.5,70,0.00,,,0.00,WUHU216HW,2013-05-14 08:31:00,
2013-05-14 01:36:00,59.4,50.0,29.96,West,270,3.8,4.9,71,0.00,,,0.00,WUHU216HW,2013-05-14 08:36:00,
2013-05-14 01:41:00,59.2,50.2,29.95,WNW,293,1.6,6.3,72,0.00,,,0.00,WUHU216HW,2013-05-14 08:41:00,
2013-05-14 01:46:00,59.2,50.2,29.95,NNW,338,1.3,6.3,72,0.00,,,0.00,WUHU216HW,2013-05-14 08:46:00,
2013-05-14 01:52:00,59.2,50.2,29.95,WNW,293,1.3,1.8,72,0.00,,,0.00,WUHU216HW,2013-05-14 08:52:00,
2013-05-14 01:57:00,59.2,50.2,29.95,WNW,293,0.4,2.7,72,0.00,,,0.00,WUHU216HW,2013-05-14 08:57:00,
2013-05-14 02:02:00,59.4,50.0,29.95,West,270,0.0,2.7,71,0.00,,,0.00,WUHU216HW,2013-05-14 09:02:00,
2013-05-14 02:07:00,59.4,50.0,29.95,WSW,248,1.1,1.3,71,0.00,,,0.00,WUHU216HW,2013-05-14 09:07:00,
2013-05-14 02:12:00,59.4,50.0,29.95,NW,315,0.0,1.3,71,0.00,,,0.00,WUHU216HW,2013-05-14 09:12:00,
2013-05-14 02:17:00,59.4,50.0,29.95,NNE,23,1.6,1.6,71,0.00,,,0.00,WUHU216HW,2013-05-14 09:17:00,
2013-05-14 02:22:00,59.2,49.9,29.95,WNW,293,1.1,2.5,71,0.00,,,0.00,WUHU216HW,2013-05-14 09:22:00,
2013-05-14 02:27:00,59.0,49.7,29.95,ENE,68,1.1,2.5,71,0.00,,,0.00,WUHU216HW,2013-05-14 09:27:00,
2013-05-14 02:32:00,59.0,49.7,29.95,NNW,338,0.4,1.8,71,0.00,,,0.00,WUHU216HW,2013-05-14 09:32:00,
2013-05-14 02:37:00,58.9,49.5,29.95,SE,135,0.4,1.8,71,0.00,,,0.00,WUHU216HW,2013-05-14 09:37:00,
2013-05-14 02:42:00,58.9,49.5,29.95,North,0,0.4,1.1,71,0.00,,,0.00,WUHU216HW,2013-05-14 09:42:00,
2013-05-14 02:47:00,58.7,50.0,29.95,NNW,338,2.0,3.1,73,0.00,,,0.00,WUHU216HW,2013-05-14 09:47:00,
2013-05-14 02:52:00,58.5,49.9,29.95,WNW,293,3.6,3.6,73,0.00,,,0.00,WUHU216HW,2013-05-14 09:52:00,
2013-05-14 02:57:00,58.1,49.9,29.94,West,270,2.7,3.6,74,0.00,,,0.00,WUHU216HW,2013-05-14 09:57:00,
2013-05-14 03:02:00,58.0,49.7,29.94,West,270,2.5,3.4,74,0.00,,,0.00,WUHU216HW,2013-05-14 10:02:00,
2013-05-14 03:07:00,58.0,49.7,29.94,SW,225,1.8,3.4,74,0.00,,,0.00,WUHU216HW,2013-05-14 10:07:00,
2013-05-14 03:12:00,58.0,49.7,29.94,West,270,1.3,3.1,74,0.00,,,0.00,WUHU216HW,2013-05-14 10:12:00,
2013-05-14 03:17:00,58.0,49.7,29.94,North,0,0.4,1.8,74,0.00,,,0.00,WUHU216HW,2013-05-14 10:17:00,
2013-05-14 03:22:00,58.0,49.7,29.94,SW,225,0.7,1.8,74,0.00,,,0.00,WUHU216HW,2013-05-14 10:22:00,
2013-05-14 03:27:00,58.1,49.5,29.95,SW,225,0.9,2.5,73,0.00,,,0.00,WUHU216HW,2013-05-14 10:27:00,
2013-05-14 03:32:00,58.1,49.5,29.95,SW,225,0.0,2.5,73,0.00,,,0.00,WUHU216HW,2013-05-14 10:32:00,
2013-05-14 03:37:00,58.1,49.5,29.95,WSW,248,0.9,0.9,73,0.00,,,0.00,WUHU216HW,2013-05-14 10:37:00,
2013-05-14 03:42:00,58.1,49.5,29.95,West,270,2.0,2.0,73,0.00,,,0.00,WUHU216HW,2013-05-14 10:42:00,
2013-05-14 03:47:00,58.0,49.3,29.95,WSW,248,3.4,3.4,73,0.00,,,0.00,WUHU216HW,2013-05-14 10:47:00,
2013-05-14 03:52:00,58.0,49.7,29.95,West,270,1.8,4.0,74,0.00,,,0.00,WUHU216HW,2013-05-14 10:52:00,
2013-05-14 03:57:00,58.0,49.7,29.95,NW,315,2.5,4.0,74,0.00,,,0.00,WUHU216HW,2013-05-14 10:57:00,
2013-05-14 04:02:00,57.8,49.5,29.95,West,270,1.1,3.4,74,0.00,,,0.00,WUHU216HW,2013-05-14 11:02:00,
2013-05-14 04:07:00,57.8,49.5,29.95,West,270,1.1,3.6,74,0.00,,,0.00,WUHU216HW,2013-05-14 11:07:00,
2013-05-14 04:12:00,57.6,49.7,29.95,WNW,293,5.1,5.1,75,0.00,,,0.00,WUHU216HW,2013-05-14 11:12:00,
2013-05-14 04:17:00,57.6,49.7,29.95,West,270,5.4,5.4,75,0.00,,,0.00,WUHU216HW,2013-05-14 11:17:00,
2013-05-14 04:22:00,57.4,49.5,29.95,West,270,4.0,5.4,75,0.00,,,0.00,WUHU216HW,2013-05-14 11:22:00,
2013-05-14 04:27:00,57.2,49.7,29.95,West,270,3.1,4.0,76,0.00,,,0.00,WUHU216HW,2013-05-14 11:27:00,
2013-05-14 04:32:00,57.1,49.5,29.96,West,270,4.0,4.0,76,0.00,,,0.00,WUHU216HW,2013-05-14 11:32:00,
2013-05-14 04:37:00,56.9,49.3,29.96,West,270,2.7,4.0,76,0.00,,,0.00,WUHU216HW,2013-05-14 11:37:00,
2013-05-14 04:42:00,56.7,49.5,29.96,NW,315,2.5,3.6,77,0.00,,,0.00,WUHU216HW,2013-05-14 11:42:00,
2013-05-14 04:47:00,56.5,49.3,29.96,West,270,3.4,4.3,77,0.00,,,0.00,WUHU216HW,2013-05-14 11:47:00,
2013-05-14 04:52:00,56.5,49.3,29.95,WNW,293,3.6,4.3,77,0.00,,,0.00,WUHU216HW,2013-05-14 11:52:00,
2013-05-14 04:57:00,56.5,49.3,29.95,West,270,5.8,5.8,77,0.00,,,0.00,WUHU216HW,2013-05-14 11:57:00,
2013-05-14 05:02:00,56.5,49.7,29.95,WNW,293,2.9,5.8,78,0.00,,,0.00,WUHU216HW,2013-05-14 12:02:00,
2013-05-14 05:07:00,56.5,49.7,29.95,West,270,3.8,4.5,78,0.00,,,0.00,WUHU216HW,2013-05-14 12:07:00,
2013-05-14 05:12:00,56.5,49.7,29.95,West,270,2.9,4.5,78,0.00,,,0.00,WUHU216HW,2013-05-14 12:12:00,
2013-05-14 05:17:00,56.3,49.5,29.95,WSW,248,2.7,3.4,78,0.00,,,0.00,WUHU216HW,2013-05-14 12:17:00,
2013-05-14 05:22:00,56.3,49.5,29.95,West,270,1.8,3.1,78,0.00,,,0.00,WUHU216HW,2013-05-14 12:22:00,
2013-05-14 05:27:00,56.3,49.5,29.95,WNW,293,1.1,3.1,78,0.00,,,0.00,WUHU216HW,2013-05-14 12:27:00,
2013-05-14 05:32:00,56.5,49.3,29.95,WSW,248,0.4,2.2,77,0.00,,,0.00,WUHU216HW,2013-05-14 12:32:00,
2013-05-14 05:37:00,56.5,49.3,29.95,WSW,248,0.4,1.8,77,0.00,,,0.00,WUHU216HW,2013-05-14 12:37:00,
2013-05-14 05:42:00,56.5,49.3,29.95,WSW,248,0.0,0.9,77,0.00,,,0.00,WUHU216HW,2013-05-14 12:42:00,
2013-05-14 05:47:00,56.5,49.3,29.95,NW,315,0.0,0.7,77,0.00,,,0.00,WUHU216HW,2013-05-14 12:47:00,
2013-05-14 05:52:00,56.5,49.0,29.95,NNE,23,0.0,1.1,76,0.00,,,0.00,WUHU216HW,2013-05-14 12:52:00,
2013-05-14 05:57:00,56.5,49.0,29.95,NNE,23,0.0,1.1,76,0.00,,,0.00,WUHU216HW,2013-05-14 12:57:00,
2013-05-14 06:02:00,56.5,49.0,29.95,East,90,1.3,1.3,76,0.00,,,0.00,WUHU216HW,2013-05-14 13:02:00,
2013-05-14 06:07:00,56.5,49.0,29.94,ESE,113,0.7,1.3,76,0.00,,,0.00,WUHU216HW,2013-05-14 13:07:00,
2013-05-14 06:12:00,56.5,49.0,29.94,West,270,0.4,1.1,76,0.00,,,0.00,WUHU216HW,2013-05-14 13:12:00,
2013-05-14 06:17:00,56.3,48.8,29.94,WNW,293,0.7,2.0,76,0.00,,,0.00,WUHU216HW,2013-05-14 13:17:00,
2013-05-14 06:22:00,56.3,48.8,29.94,West,270,1.1,2.0,76,0.00,,,0.00,WUHU216HW,2013-05-14 13:22:00,
2013-05-14 06:27:00,56.3,48.8,29.95,WSW,248,0.4,1.1,76,0.00,,,0.00,WUHU216HW,2013-05-14 13:27:00,
2013-05-14 06:32:00,56.3,48.8,29.95,SW,225,1.1,1.1,76,0.00,,,0.00,WUHU216HW,2013-05-14 13:32:00,
2013-05-14 06:37:00,56.3,48.8,29.95,WSW,248,1.1,1.1,76,0.00,,,0.00,WUHU216HW,2013-05-14 13:37:00,
2013-05-14 06:42:00,56.3,48.8,29.95,SW,225,0.7,1.3,76,0.00,,,0.00,WUHU216HW,2013-05-14 13:42:00,
2013-05-14 06:47:00,56.3,48.8,29.95,SW,225,1.1,2.5,76,0.00,,,0.00,WUHU216HW,2013-05-14 13:47:00,
2013-05-14 06:52:00,56.3,48.8,29.95,SW,225,0.9,2.5,76,0.00,,,0.00,WUHU216HW,2013-05-14 13:52:00,
2013-05-14 06:57:00,56.5,49.0,29.95,West,270,3.4,3.4,76,0.00,,,0.00,WUHU216HW,2013-05-14 13:57:00,
2013-05-14 07:02:00,56.5,49.0,29.95,NW,315,2.2,3.4,76,0.00,,,0.00,WUHU216HW,2013-05-14 14:02:00,
2013-05-14 07:07:00,56.5,49.3,29.95,WSW,248,2.0,3.4,77,0.00,,,0.00,WUHU216HW,2013-05-14 14:07:00,
2013-05-14 07:12:00,56.5,49.3,29.95,NW,315,0.9,3.4,77,0.00,,,0.00,WUHU216HW,2013-05-14 14:12:00,
2013-05-14 07:17:00,56.7,49.5,29.95,North,0,1.3,3.4,77,0.00,,,0.00,WUHU216HW,2013-05-14 14:17:00,
2013-05-14 07:22:00,56.9,49.7,29.95,North,0,0.0,3.4,77,0.00,,,0.00,WUHU216HW,2013-05-14 14:22:00,
2013-05-14 07:27:00,57.1,49.9,29.95,NNW,338,0.9,1.1,77,0.00,,,0.00,WUHU216HW,2013-05-14 14:27:00,
2013-05-14 07:32:00,57.2,50.4,29.95,SW,225,0.9,1.1,78,0.00,,,0.00,WUHU216HW,2013-05-14 14:32:00,
2013-05-14 07:37:00,57.4,50.6,29.95,WNW,293,2.0,3.1,78,0.00,,,0.00,WUHU216HW,2013-05-14 14:37:00,
2013-05-14 07:42:00,57.6,50.8,29.95,West,270,1.6,3.1,78,0.00,,,0.00,WUHU216HW,2013-05-14 14:42:00,
2013-05-14 07:47:00,57.8,50.6,29.95,WNW,293,1.8,4.0,77,0.00,,,0.00,WUHU216HW,2013-05-14 14:47:00,
2013-05-14 07:52:00,58.1,50.9,29.96,SW,225,2.7,4.0,77,0.00,,,0.00,WUHU216HW,2013-05-14 14:52:00,
2013-05-14 07:57:00,58.3,51.1,29.96,SW,225,1.6,3.4,77,0.00,,,0.00,WUHU216HW,2013-05-14 14:57:00,
2013-05-14 08:02:00,58.7,51.1,29.96,NW,315,0.9,2.2,76,0.00,,,0.00,WUHU216HW,2013-05-14 15:02:00,
2013-05-14 08:07:00,58.7,51.1,29.96,WSW,248,1.6,2.0,76,0.00,,,0.00,WUHU216HW,2013-05-14 15:07:00,
2013-05-14 08:12:00,58.9,51.3,29.96,WSW,248,4.7,4.7,76,0.00,,,0.00,WUHU216HW,2013-05-14 15:12:00,
2013-05-14 08:17:00,58.9,51.3,29.96,West,270,1.8,4.7,76,0.00,,,0.00,WUHU216HW,2013-05-14 15:17:00,
2013-05-14 08:22:00,58.9,51.3,29.96,SW,225,2.7,2.7,76,0.00,,,0.00,WUHU216HW,2013-05-14 15:22:00,
2013-05-14 08:27:00,59.2,51.7,29.96,SE,135,4.0,4.0,76,0.00,,,0.00,WUHU216HW,2013-05-14 15:27:00,
2013-05-14 08:32:00,59.4,51.8,29.97,South,180,3.8,4.0,76,0.00,,,0.00,WUHU216HW,2013-05-14 15:32:00,
2013-05-14 08:37:00,59.8,51.8,29.97,WSW,248,1.8,3.8,75,0.00,,,0.00,WUHU216HW,2013-05-14 15:37:00,
2013-05-14 08:42:00,59.9,52.0,29.97,SSE,158,0.0,3.1,75,0.00,,,0.00,WUHU216HW,2013-05-14 15:42:00,
2013-05-14 08:47:00,60.1,52.2,29.97,SE,135,2.2,2.7,75,0.00,,,0.00,WUHU216HW,2013-05-14 15:47:00,
2013-05-14 08:52:00,60.5,52.6,29.97,SSW,203,0.7,4.3,75,0.00,,,0.00,WUHU216HW,2013-05-14 15:52:00,
2013-05-14 08:57:00,60.7,52.7,29.97,WNW,293,1.3,4.3,75,0.00,,,0.00,WUHU216HW,2013-05-14 15:57:00,
2013-05-14 09:02:00,60.8,52.6,29.97,SW,225,1.1,3.1,74,0.00,,,0.00,WUHU216HW,2013-05-14 16:02:00,
2013-05-14 09:07:00,61.2,52.9,29.98,South,180,2.2,4.3,74,0.00,,,0.00,WUHU216HW,2013-05-14 16:07:00,
2013-05-14 09:12:00,61.4,53.0,29.97,SSE,158,0.2,4.3,74,0.00,,,0.00,WUHU216HW,2013-05-14 16:12:00,
2013-05-14 09:17:00,61.7,53.0,29.97,SSW,203,4.0,4.0,73,0.00,,,0.00,WUHU216HW,2013-05-14 16:17:00,
2013-05-14 09:22:00,62.3,53.5,29.97,ESE,113,3.4,4.0,73,0.00,,,0.00,WUHU216HW,2013-05-14 16:22:00,
2013-05-14 09:27:00,62.8,54.0,29.97,SSE,158,3.6,4.3,73,0.00,,,0.00,WUHU216HW,2013-05-14 16:27:00,
2013-05-14 09:32:00,63.2,54.0,29.96,WSW,248,0.7,4.3,72,0.00,,,0.00,WUHU216HW,2013-05-14 16:32:00,
2013-05-14 09:37:00,63.5,54.4,29.96,SE,135,0.9,2.5,72,0.00,,,0.00,WUHU216HW,2013-05-14 16:37:00,
2013-05-14 09:42:00,64.1,54.5,29.96,SE,135,1.8,1.8,71,0.00,,,0.00,WUHU216HW,2013-05-14 16:42:00,
2013-05-14 09:47:00,64.4,54.9,29.96,West,270,0.9,1.8,71,0.00,,,0.00,WUHU216HW,2013-05-14 16:47:00,
2013-05-14 09:52:00,64.8,54.9,29.97,WNW,293,0.2,1.8,70,0.00,,,0.00,WUHU216HW,2013-05-14 16:52:00,
2013-05-14 09:57:00,64.8,54.5,29.97,WSW,248,2.5,2.5,69,0.00,,,0.00,WUHU216HW,2013-05-14 16:57:00,
2013-05-14 10:02:00,65.2,54.4,29.97,WSW,248,0.7,3.4,68,0.00,,,0.00,WUHU216HW,2013-05-14 17:02:00,
2013-05-14 10:07:00,65.5,54.6,29.97,SSE,158,4.7,4.7,68,0.00,,,0.00,WUHU216HW,2013-05-14 17:07:00,
2013-05-14 10:12:00,65.9,54.2,29.97,SW,225,3.1,4.7,66,0.00,,,0.00,WUHU216HW,2013-05-14 17:12:00,
2013-05-14 10:17:00,66.2,54.6,29.97,SW,225,5.4,5.4,66,0.00,,,0.00,WUHU216HW,2013-05-14 17:17:00,
2013-05-14 10:22:00,66.4,54.7,29.97,WSW,248,1.1,5.4,66,0.00,,,0.00,WUHU216HW,2013-05-14 17:22:00,
2013-05-14 10:27:00,66.6,54.5,29.97,WSW,248,2.0,5.4,65,0.00,,,0.00,WUHU216HW,2013-05-14 17:27:00,
2013-05-14 10:32:00,67.0,54.8,29.97,West,270,1.6,4.0,65,0.00,,,0.00,WUHU216HW,2013-05-14 17:32:00,
2013-05-14 10:37:00,67.1,54.9,29.97,SW,225,2.9,5.1,65,0.00,,,0.00,WUHU216HW,2013-05-14 17:37:00,
2013-05-14 10:42:00,67.5,54.5,29.98,WSW,248,3.4,5.1,63,0.00,,,0.00,WUHU216HW,2013-05-14 17:42:00,
2013-05-14 10:47:00,67.5,54.9,29.98,West,270,3.4,4.7,64,0.00,,,0.00,WUHU216HW,2013-05-14 17:47:00,
2013-05-14 10:52:00,67.7,54.6,29.98,WSW,248,3.8,5.8,63,0.00,,,0.00,WUHU216HW,2013-05-14 17:52:00,
2013-05-14 10:57:00,67.9,54.8,29.98,West,270,5.4,5.8,63,0.00,,,0.00,WUHU216HW,2013-05-14 17:57:00,
2013-05-14 11:02:00,67.7,54.6,29.98,WSW,248,2.5,5.4,63,0.00,,,0.00,WUHU216HW,2013-05-14 18:02:00,
2013-05-14 11:07:00,68.2,54.7,29.98,WSW,248,3.6,3.6,62,0.00,,,0.00,WUHU216HW,2013-05-14 18:07:00,
2013-05-14 11:12:00,68.2,54.7,29.98,WSW,248,1.6,3.6,62,0.00,,,0.00,WUHU216HW,2013-05-14 18:12:00,
2013-05-14 11:17:00,68.2,54.7,29.98,NW,315,0.2,3.6,62,0.00,,,0.00,WUHU216HW,2013-05-14 18:17:00,
2013-05-14 11:22:00,68.6,55.0,29.98,WNW,293,1.8,3.6,62,0.00,,,0.00,WUHU216HW,2013-05-14 18:22:00,
2013-05-14 11:27:00,68.8,55.2,29.98,WSW,248,2.9,4.3,62,0.00,,,0.00,WUHU216HW,2013-05-14 18:27:00,
2013-05-14 11:32:00,68.9,55.0,29.98,West,270,2.2,4.3,61,0.00,,,0.00,WUHU216HW,2013-05-14 18:32:00,
2013-05-14 11:37:00,69.3,55.4,29.98,WNW,293,3.6,3.6,61,0.00,,,0.00,WUHU216HW,2013-05-14 18:37:00,
2013-05-14 11:42:00,69.5,55.1,29.98,West,270,3.6,5.4,60,0.00,,,0.00,WUHU216HW,2013-05-14 18:42:00,
2013-05-14 11:47:00,69.7,54.7,29.98,SW,225,2.5,5.4,59,0.00,,,0.00,WUHU216HW,2013-05-14 18:47:00,
2013-05-14 11:52:00,69.7,54.7,29.98,South,180,1.8,3.8,59,0.00,,,0.00,WUHU216HW,2013-05-14 18:52:00,
2013-05-14 11:57:00,70.4,55.5,29.98,West,270,3.6,3.6,59,0.00,,,0.00,WUHU216HW,2013-05-14 18:57:00,
2013-05-14 12:02:00,71.1,56.6,29.98,SW,225,2.5,3.6,60,0.00,,,0.00,WUHU216HW,2013-05-14 19:02:00,
2013-05-14 12:07:00,71.6,57.1,29.98,SSW,203,3.1,4.0,60,0.00,,,0.00,WUHU216HW,2013-05-14 19:07:00,
2013-05-14 12:12:00,72.5,56.9,29.98,West,270,2.7,4.0,58,0.00,,,0.00,WUHU216HW,2013-05-14 19:12:00,
2013-05-14 12:17:00,73.1,56.9,29.97,SW,225,4.5,6.7,57,0.00,,,0.00,WUHU216HW,2013-05-14 19:17:00,
2013-05-14 12:22:00,73.3,56.5,29.98,WSW,248,3.1,6.7,56,0.00,,,0.00,WUHU216HW,2013-05-14 19:22:00,
2013-05-14 12:27:00,73.8,57.1,29.97,WNW,293,4.0,6.0,56,0.00,,,0.00,WUHU216HW,2013-05-14 19:27:00,
2013-05-14 12:32:00,73.6,56.3,29.97,West,270,5.8,6.0,55,0.00,,,0.00,WUHU216HW,2013-05-14 19:32:00,
2013-05-14 12:37:00,73.8,56.5,29.97,SW,225,4.0,6.5,55,0.00,,,0.00,WUHU216HW,2013-05-14 19:37:00,
2013-05-14 12:42:00,73.8,56.5,29.97,West,270,3.1,6.5,55,0.00,,,0.00,WUHU216HW,2013-05-14 19:42:00,
2013-05-14 12:47:00,73.4,55.6,29.97,WSW,248,6.7,6.7,54,0.00,,,0.00,WUHU216HW,2013-05-14 19:47:00,
2013-05-14 12:52:00,73.3,55.5,29.97,WNW,293,6.0,6.7,54,0.00,,,0.00,WUHU216HW,2013-05-14 19:52:00,
2013-05-14 12:57:00,72.7,54.6,29.97,WNW,293,4.5,6.7,53,0.00,,,0.00,WUHU216HW,2013-05-14 19:57:00,
2013-05-14 13:02:00,72.5,54.8,29.97,West,270,4.7,6.7,54,0.00,,,0.00,WUHU216HW,2013-05-14 20:02:00,
2013-05-14 13:07:00,72.2,54.6,29.97,West,270,6.9,6.9,54,0.00,,,0.00,WUHU216HW,2013-05-14 20:07:00,
2013-05-14 13:12:00,72.2,54.6,29.97,NW,315,4.9,6.9,54,0.00,,,0.00,WUHU216HW,2013-05-14 20:12:00,
2013-05-14 13:17:00,72.5,54.8,29.97,SW,225,6.0,6.9,54,0.00,,,0.00,WUHU216HW,2013-05-14 20:17:00,
2013-05-14 13:22:00,72.5,54.8,29.97,West,270,4.9,8.3,54,0.00,,,0.00,WUHU216HW,2013-05-14 20:22:00,
2013-05-14 13:27:00,72.5,54.4,29.97,West,270,5.4,10.5,53,0.00,,,0.00,WUHU216HW,2013-05-14 20:27:00,
2013-05-14 13:32:00,72.4,54.2,29.97,WNW,293,6.3,10.5,53,0.00,,,0.00,WUHU216HW,2013-05-14 20:32:00,
2013-05-14 13:37:00,72.4,54.2,29.96,WNW,293,7.2,8.5,53,0.00,,,0.00,WUHU216HW,2013-05-14 20:37:00,
2013-05-14 13:42:00,72.7,54.6,29.96,WNW,293,6.0,7.2,53,0.00,,,0.00,WUHU216HW,2013-05-14 20:42:00,
2013-05-14 13:47:00,72.7,54.6,29.96,West,270,6.0,7.2,53,0.00,,,0.00,WUHU216HW,2013-05-14 20:47:00,
2013-05-14 13:52:00,72.4,53.6,29.97,WNW,293,9.2,9.2,52,0.00,,,0.00,WUHU216HW,2013-05-14 20:52:00,
2013-05-14 13:57:00,72.4,53.6,29.96,West,270,7.4,9.2,52,0.00,,,0.00,WUHU216HW,2013-05-14 20:57:00,
2013-05-14 14:02:00,72.5,53.8,29.97,NW,315,5.4,8.9,52,0.00,,,0.00,WUHU216HW,2013-05-14 21:02:00,
2013-05-14 14:07:00,72.4,53.6,29.97,West,270,5.6,8.5,52,0.00,,,0.00,WUHU216HW,2013-05-14 21:07:00,
2013-05-14 14:12:00,72.4,53.6,29.97,West,270,6.9,8.5,52,0.00,,,0.00,WUHU216HW,2013-05-14 21:12:00,
2013-05-14 14:17:00,72.2,53.6,29.97,WSW,248,8.1,8.1,52,0.00,,,0.00,WUHU216HW,2013-05-14 21:17:00,
2013-05-14 14:22:00,72.0,53.4,29.96,NW,315,6.3,8.1,52,0.00,,,0.00,WUHU216HW,2013-05-14 21:22:00,
2013-05-14 14:27:00,71.8,52.7,29.96,WNW,293,6.3,8.9,51,0.00,,,0.00,WUHU216HW,2013-05-14 21:27:00,
2013-05-14 14:32:00,71.5,52.8,29.96,West,270,6.3,9.8,52,0.00,,,0.00,WUHU216HW,2013-05-14 21:32:00,
2013-05-14 14:37:00,71.5,52.8,29.96,WNW,293,6.0,9.8,52,0.00,,,0.00,WUHU216HW,2013-05-14 21:37:00,
2013-05-14 14:42:00,71.5,52.4,29.96,WSW,248,4.9,9.8,51,0.00,,,0.00,WUHU216HW,2013-05-14 21:42:00,
2013-05-14 14:47:00,71.5,52.4,29.96,West,270,6.3,9.4,51,0.00,,,0.00,WUHU216HW,2013-05-14 21:47:00,
2013-05-14 14:52:00,71.3,52.2,29.96,WNW,293,5.4,9.4,51,0.00,,,0.00,WUHU216HW,2013-05-14 21:52:00,
2013-05-14 14:57:00,71.1,51.6,29.96,SSE,158,5.6,11.2,50,0.00,,,0.00,WUHU216HW,2013-05-14 21:57:00,
2013-05-14 15:02:00,70.6,51.0,29.96,West,270,6.3,11.2,50,0.00,,,0.00,WUHU216HW,2013-05-14 22:02:00,
2013-05-14 15:07:00,70.7,51.2,29.96,West,270,4.0,7.8,50,0.00,,,0.00,WUHU216HW,2013-05-14 22:07:00,
2013-05-14 15:12:00,70.4,51.4,29.96,NNW,338,6.9,7.8,51,0.00,,,0.00,WUHU216HW,2013-05-14 22:12:00,
2013-05-14 15:17:00,69.8,51.0,29.96,WSW,248,7.8,11.4,51,0.00,,,0.00,WUHU216HW,2013-05-14 22:17:00,
2013-05-14 15:22:00,69.5,50.6,29.96,West,270,6.3,11.4,51,0.00,,,0.00,WUHU216HW,2013-05-14 22:22:00,
2013-05-14 15:27:00,69.5,50.6,29.96,WNW,293,6.3,9.2,51,0.00,,,0.00,WUHU216HW,2013-05-14 22:27:00,
2013-05-14 15:32:00,69.5,50.6,29.96,WSW,248,6.3,9.2,51,0.00,,,0.00,WUHU216HW,2013-05-14 22:32:00,
2013-05-14 15:37:00,69.7,51.2,29.96,West,270,8.1,10.3,52,0.00,,,0.00,WUHU216HW,2013-05-14 22:37:00,
2013-05-14 15:42:00,69.8,51.4,29.96,WSW,248,8.5,10.3,52,0.00,,,0.00,WUHU216HW,2013-05-14 22:42:00,
2013-05-14 15:47:00,70.2,51.8,29.97,NNW,338,7.6,9.6,52,0.00,,,0.00,WUHU216HW,2013-05-14 22:47:00,
2013-05-14 15:52:00,70.4,51.9,29.96,West,270,5.4,9.6,52,0.00,,,0.00,WUHU216HW,2013-05-14 22:52:00,
2013-05-14 15:58:00,70.2,51.8,29.97,SW,225,4.7,8.5,52,0.00,,,0.00,WUHU216HW,2013-05-14 22:58:00,
2013-05-14 16:03:00,70.4,51.9,29.97,SW,225,6.5,8.5,52,0.00,,,0.00,WUHU216HW,2013-05-14 23:03:00,
2013-05-14 16:08:00,70.2,51.2,29.97,WNW,293,8.1,9.8,51,0.00,,,0.00,WUHU216HW,2013-05-14 23:08:00,
2013-05-14 16:13:00,70.2,51.2,29.97,West,270,9.8,9.8,51,0.00,,,0.00,WUHU216HW,2013-05-14 23:13:00,
2013-05-14 16:18:00,70.0,51.0,29.97,WNW,293,4.3,9.8,51,0.00,,,0.00,WUHU216HW,2013-05-14 23:18:00,
2013-05-14 16:23:00,69.8,51.0,29.97,West,270,4.5,9.8,51,0.00,,,0.00,WUHU216HW,2013-05-14 23:23:00,
2013-05-14 16:28:00,69.7,50.8,29.97,WNW,293,6.9,6.9,51,0.00,,,0.00,WUHU216HW,2013-05-14 23:28:00,
2013-05-14 16:33:00,69.5,50.6,29.97,SW,225,4.0,6.9,51,0.00,,,0.00,WUHU216HW,2013-05-14 23:33:00,
2013-05-14 16:38:00,69.8,51.0,29.97,West,270,5.4,6.3,51,0.00,,,0.00,WUHU216HW,2013-05-14 23:38:00,
2013-05-14 16:43:00,69.8,51.0,29.97,West,270,4.0,5.6,51,0.00,,,0.00,WUHU216HW,2013-05-14 23:43:00,
2013-05-14 16:48:00,69.7,50.8,29.97,NNW,338,7.4,7.4,51,0.00,,,0.00,WUHU216HW,2013-05-14 23:48:00,
2013-05-14 16:53:00,69.5,50.6,29.97,NW,315,6.9,7.4,51,0.00,,,0.00,WUHU216HW,2013-05-14 23:53:00,
2013-05-14 16:58:00,68.9,50.6,29.97,NW,315,6.7,7.8,52,0.00,,,0.00,WUHU216HW,2013-05-14 23:58:00,
2013-05-14 17:03:00,68.8,50.4,29.96,WSW,248,3.6,7.8,52,0.00,,,0.00,WUHU216HW,2013-05-15 00:03:00,
2013-05-14 17:08:00,68.8,50.4,29.97,NW,315,6.0,6.7,52,0.00,,,0.00,WUHU216HW,2013-05-15 00:08:00,
2013-05-14 17:13:00,68.8,50.4,29.97,West,270,9.8,9.8,52,0.00,,,0.00,WUHU216HW,2013-05-15 00:13:00,
2013-05-14 17:18:00,68.6,50.2,29.96,NNW,338,5.4,9.8,52,0.00,,,0.00,WUHU216HW,2013-05-15 00:18:00,
2013-05-14 17:23:00,68.6,50.2,29.97,NW,315,4.0,9.8,52,0.00,,,0.00,WUHU216HW,2013-05-15 00:23:00,
2013-05-14 17:28:00,68.6,50.8,29.97,WSW,248,6.5,6.5,53,0.00,,,0.00,WUHU216HW,2013-05-15 00:28:00,
2013-05-14 17:33:00,68.6,50.8,29.97,NW,315,6.0,6.5,53,0.00,,,0.00,WUHU216HW,2013-05-15 00:33:00,
2013-05-14 17:38:00,68.6,50.8,29.97,NW,315,1.8,6.5,53,0.00,,,0.00,WUHU216HW,2013-05-15 00:38:00,
2013-05-14 17:43:00,68.8,51.0,29.97,West,270,5.8,5.8,53,0.00,,,0.00,WUHU216HW,2013-05-15 00:43:00,
2013-05-14 17:48:00,68.6,50.8,29.97,WNW,293,3.6,6.5,53,0.00,,,0.00,WUHU216HW,2013-05-15 00:48:00,
2013-05-14 17:53:00,68.6,50.8,29.97,West,270,6.3,7.2,53,0.00,,,0.00,WUHU216HW,2013-05-15 00:53:00,
2013-05-14 17:58:00,68.4,50.6,29.96,NW,315,7.6,7.6,53,0.00,,,0.00,WUHU216HW,2013-05-15 00:58:00,
2013-05-14 18:03:00,68.2,50.4,29.96,WNW,293,6.9,8.9,53,0.00,,,0.00,WUHU216HW,2013-05-15 01:03:00,
2013-05-14 18:08:00,68.2,50.4,29.96,NNW,338,4.0,8.9,53,0.00,,,0.00,WUHU216HW,2013-05-15 01:08:00,
2013-05-14 18:13:00,68.0,50.2,29.96,West,270,7.6,7.6,53,0.00,,,0.00,WUHU216HW,2013-05-15 01:13:00,
2013-05-14 18:18:00,68.0,50.2,29.96,West,270,3.8,7.6,53,0.00,,,0.00,WUHU216HW,2013-05-15 01:18:00,
2013-05-14 18:23:00,67.7,50.4,29.96,West,270,9.2,9.2,54,0.00,,,0.00,WUHU216HW,2013-05-15 01:23:00,
2013-05-14 18:28:00,67.7,50.4,29.97,NW,315,6.9,9.2,54,0.00,,,0.00,WUHU216HW,2013-05-15 01:28:00,
2013-05-14 18:33:00,67.5,50.2,29.97,West,270,7.6,7.6,54,0.00,,,0.00,WUHU216HW,2013-05-15 01:33:00,
2013-05-14 18:38:00,67.3,50.0,29.97,NW,315,3.1,9.2,54,0.00,,,0.00,WUHU216HW,2013-05-15 01:38:00,
2013-05-14 18:43:00,67.0,49.8,29.97,WNW,293,4.7,9.2,54,0.00,,,0.00,WUHU216HW,2013-05-15 01:43:00,
2013-05-14 18:48:00,66.8,50.0,29.97,West,270,6.9,6.9,55,0.00,,,0.00,WUHU216HW,2013-05-15 01:48:00,
2013-05-14 18:53:00,66.6,49.4,29.97,WNW,293,6.9,7.6,54,0.00,,,0.00,WUHU216HW,2013-05-15 01:53:00,
2013-05-14 18:58:00,66.4,49.2,29.97,West,270,8.3,8.3,54,0.00,,,0.00,WUHU216HW,2013-05-15 01:58:00,
2013-05-14 19:03:00,66.1,49.4,29.97,NW,315,7.4,8.3,55,0.00,,,0.00,WUHU216HW,2013-05-15 02:03:00,
2013-05-14 19:08:00,65.9,49.2,29.97,West,270,3.1,8.3,55,0.00,,,0.00,WUHU216HW,2013-05-15 02:08:00,
2013-05-14 19:13:00,65.5,48.9,29.98,NW,315,2.7,7.4,55,0.00,,,0.00,WUHU216HW,2013-05-15 02:13:00,
2013-05-14 19:18:00,65.3,48.7,29.98,WSW,248,9.2,9.2,55,0.00,,,0.00,WUHU216HW,2013-05-15 02:18:00,
2013-05-14 19:23:00,65.2,48.5,29.98,WSW,248,6.9,9.2,55,0.00,,,0.00,WUHU216HW,2013-05-15 02:23:00,
2013-05-14 19:28:00,64.8,48.2,29.98,NW,315,3.4,7.8,55,0.00,,,0.00,WUHU216HW,2013-05-15 02:28:00,
2013-05-14 19:33:00,64.4,48.2,29.98,NW,315,3.8,7.8,56,0.00,,,0.00,WUHU216HW,2013-05-15 02:33:00,
2013-05-14 19:38:00,64.4,48.2,29.98,NW,315,3.8,6.9,56,0.00,,,0.00,WUHU216HW,2013-05-15 02:38:00,
2013-05-14 19:43:00,64.3,48.2,29.98,West,270,4.0,7.6,56,0.00,,,0.00,WUHU216HW,2013-05-15 02:43:00,
2013-05-14 19:48:00,64.3,48.2,29.99,NW,315,6.0,7.6,56,0.00,,,0.00,WUHU216HW,2013-05-15 02:48:00,
2013-05-14 19:53:00,63.7,48.2,29.99,West,270,4.9,6.0,57,0.00,,,0.00,WUHU216HW,2013-05-15 02:53:00,
2013-05-14 19:58:00,63.5,48.0,29.99,WNW,293,5.6,10.3,57,0.00,,,0.00,WUHU216HW,2013-05-15 02:58:00,
2013-05-14 20:03:00,63.4,47.8,29.99,WNW,293,6.0,10.3,57,0.00,,,0.00,WUHU216HW,2013-05-15 03:03:00,
2013-05-14 20:08:00,63.0,48.0,29.99,WSW,248,4.7,8.3,58,0.00,,,0.00,WUHU216HW,2013-05-15 03:08:00,
2013-05-14 20:13:00,62.6,47.6,30.00,West,270,4.9,8.3,58,0.00,,,0.00,WUHU216HW,2013-05-15 03:13:00,
2013-05-14 20:18:00,62.3,47.4,30.00,NW,315,5.6,6.3,58,0.00,,,0.00,WUHU216HW,2013-05-15 03:18:00,
2013-05-14 20:23:00,62.1,47.2,30.00,West,270,1.8,5.6,58,0.00,,,0.00,WUHU216HW,2013-05-15 03:23:00,
2013-05-14 20:28:00,61.9,47.0,30.00,WNW,293,5.6,6.3,58,0.00,,,0.00,WUHU216HW,2013-05-15 03:28:00,
2013-05-14 20:33:00,61.9,47.4,30.00,WNW,293,4.3,6.3,59,0.00,,,0.00,WUHU216HW,2013-05-15 03:33:00,
2013-05-14 20:38:00,61.6,47.2,30.00,NW,315,2.7,5.6,59,0.00,,,0.00,WUHU216HW,2013-05-15 03:38:00,
2013-05-14 20:43:00,61.6,47.2,30.01,WNW,293,2.5,4.3,59,0.00,,,0.00,WUHU216HW,2013-05-15 03:43:00,
2013-05-14 20:48:00,61.4,47.4,30.00,West,270,2.5,2.7,60,0.00,,,0.00,WUHU216HW,2013-05-15 03:48:00,
2013-05-14 20:53:00,61.2,47.4,30.01,WNW,293,4.5,7.6,60,0.00,,,0.00,WUHU216HW,2013-05-15 03:53:00,
2013-05-14 20:58:00,60.8,47.0,30.01,NW,315,4.0,7.6,60,0.00,,,0.00,WUHU216HW,2013-05-15 03:58:00,
2013-05-14 21:03:00,60.7,47.3,30.01,NW,315,3.4,6.9,61,0.00,,,0.00,WUHU216HW,2013-05-15 04:03:00,
2013-05-14 21:08:00,60.5,47.1,30.01,West,270,4.0,6.9,61,0.00,,,0.00,WUHU216HW,2013-05-15 04:08:00,
2013-05-14 21:13:00,60.5,47.1,30.01,WNW,293,3.6,6.0,61,0.00,,,0.00,WUHU216HW,2013-05-15 04:13:00,
2013-05-14 21:18:00,60.5,47.1,30.01,West,270,2.9,4.5,61,0.00,,,0.00,WUHU216HW,2013-05-15 04:18:00,
2013-05-14 21:23:00,60.5,47.1,30.01,WSW,248,2.2,4.0,61,0.00,,,0.00,WUHU216HW,2013-05-15 04:23:00,
2013-05-14 21:28:00,60.5,47.1,30.02,West,270,3.1,3.1,61,0.00,,,0.00,WUHU216HW,2013-05-15 04:28:00,
2013-05-14 21:33:00,60.7,47.3,30.02,WSW,248,3.4,3.4,61,0.00,,,0.00,WUHU216HW,2013-05-15 04:33:00,
2013-05-14 21:38:00,60.7,47.3,30.02,West,270,2.2,3.4,61,0.00,,,0.00,WUHU216HW,2013-05-15 04:38:00,
2013-05-14 21:43:00,60.8,47.4,30.02,WSW,248,2.5,3.4,61,0.00,,,0.00,WUHU216HW,2013-05-15 04:43:00,
2013-05-14 21:48:00,61.0,47.5,30.02,WSW,248,1.8,2.7,61,0.00,,,0.00,WUHU216HW,2013-05-15 04:48:00,
2013-05-14 21:53:00,61.2,47.7,30.02,SW,225,2.9,2.9,61,0.00,,,0.00,WUHU216HW,2013-05-15 04:53:00,
2013-05-14 21:58:00,61.2,47.7,30.02,NNW,338,2.9,2.9,61,0.00,,,0.00,WUHU216HW,2013-05-15 04:58:00,
2013-05-14 22:03:00,60.7,47.3,30.03,NNW,338,1.8,5.4,61,0.00,,,0.00,WUHU216HW,2013-05-15 05:03:00,
2013-05-14 22:08:00,60.3,47.3,30.03,West,270,4.0,5.4,62,0.00,,,0.00,WUHU216HW,2013-05-15 05:08:00,
2013-05-14 22:13:00,60.3,47.3,30.03,SSW,203,3.1,4.0,62,0.00,,,0.00,WUHU216HW,2013-05-15 05:13:00,
2013-05-14 22:18:00,60.3,47.3,30.03,SW,225,2.5,3.1,62,0.00,,,0.00,WUHU216HW,2013-05-15 05:18:00,
2013-05-14 22:23:00,60.5,47.4,30.03,WSW,248,4.0,4.3,62,0.00,,,0.00,WUHU216HW,2013-05-15 05:23:00,
2013-05-14 22:28:00,60.5,47.4,30.03,West,270,4.7,4.7,62,0.00,,,0.00,WUHU216HW,2013-05-15 05:28:00,
2013-05-14 22:33:00,60.1,47.1,30.03,NW,315,2.9,4.7,62,0.00,,,0.00,WUHU216HW,2013-05-15 05:33:00,
2013-05-14 22:38:00,59.6,46.5,30.03,West,270,1.8,4.7,62,0.00,,,0.00,WUHU216HW,2013-05-15 05:38:00,
2013-05-14 22:43:00,59.4,46.4,30.03,NW,315,2.9,3.1,62,0.00,,,0.00,WUHU216HW,2013-05-15 05:43:00,
2013-05-14 22:48:00,59.2,46.2,30.03,West,270,1.8,3.1,62,0.00,,,0.00,WUHU216HW,2013-05-15 05:48:00,
2013-05-14 22:53:00,59.2,46.6,30.03,NW,315,2.7,3.1,63,0.00,,,0.00,WUHU216HW,2013-05-15 05:53:00,
2013-05-14 22:58:00,59.2,46.6,30.03,West,270,1.6,3.4,63,0.00,,,0.00,WUHU216HW,2013-05-15 05:58:00,
2013-05-14 23:03:00,59.4,46.4,30.03,SW,225,1.1,3.4,62,0.00,,,0.00,WUHU216HW,2013-05-15 06:03:00,
2013-05-14 23:08:00,59.6,46.5,30.04,WSW,248,2.2,3.6,62,0.00,,,0.00,WUHU216HW,2013-05-15 06:08:00,
2013-05-14 23:13:00,59.6,46.5,30.04,West,270,0.9,3.6,62,0.00,,,0.00,WUHU216HW,2013-05-15 06:13:00,
2013-05-14 23:18:00,59.4,46.4,30.03,WNW,293,1.8,2.7,62,0.00,,,0.00,WUHU216HW,2013-05-15 06:18:00,
2013-05-14 23:23:00,59.4,46.4,30.03,WNW,293,2.0,3.1,62,0.00,,,0.00,WUHU216HW,2013-05-15 06:23:00,
2013-05-14 23:28:00,59.2,46.2,30.03,WSW,248,3.8,3.8,62,0.00,,,0.00,WUHU216HW,2013-05-15 06:28:00,
2013-05-14 23:33:00,59.2,46.2,30.03,WSW,248,3.4,3.8,62,0.00,,,0.00,WUHU216HW,2013-05-15 06:33:00,
2013-05-14 23:38:00,59.2,46.2,30.03,West,270,1.1,3.4,62,0.00,,,0.00,WUHU216HW,2013-05-15 06:38:00,
2013-05-14 23:43:00,59.2,46.2,30.03,West,270,1.6,2.9,62,0.00,,,0.00,WUHU216HW,2013-05-15 06:43:00,
2013-05-14 23:48:00,59.0,46.0,30.03,WNW,293,0.4,2.9,62,0.00,,,0.00,WUHU216HW,2013-05-15 06:48:00,
2013-05-14 23:53:00,59.0,46.0,30.03,West,270,0.7,1.6,62,0.00,,,0.00,WUHU216HW,2013-05-15 06:53:00,
2013-05-14 23:58:00,59.0,46.0,30.03,WSW,248,1.6,1.6,62,0.00,,,0.00,WUHU216HW,2013-05-15 06:58:00,